Regional Weather Roundup
Issued by NWS

Home | Current Version | Previous Version | Text Only | Print | Product List | Glossary On
Versions: 1 2 3 4 5 6 7 8 9 10 11 12 13 14 15 16 17 18 19 20 21 22 23 24 25 26 27 28 29 30 31 32 33 34 35 36 37 38 39 40 41 42 43 44 45 46 47 48 49 50
000
ASPQ40 PGUM 280114
RWRPQ
WEATHER ROUNDUP FOR THE MARIANAS AND MICRONESIA
NATIONAL WEATHER SERVICE TIYAN GU
1100 AM CHST TUE JUL 28 2015

GUZ001>004-280200-
MARIANA ISLANDS-

CITY           SKY/WX    TMP DP  RH WIND       PRES   REMARKS
GUAM AIRPORT   MOSUNNY   88  73  62 N5        29.85F HX  96
ANDERSEN AFB   NOT AVBL
ROTA AIRPORT   NOT AVBL
TINIAN AP      NOT AVBL
SAIPAN AP      NOT AVBL

$$

PMZ161-280200-
REPUBLIC OF PALAU-

CITY           SKY/WX    TMP DP  RH WIND       PRES   REMARKS
KOROR AP       PTSUNNY   84  77  79 W9        29.85F HX  94
KOROR WSO      PTSUNNY   88  75  66 NW6       29.89S HX  97

$$

PMZ171>174-280200-
FEDERATED STATES OF MICRONESIA-

CITY           SKY/WX    TMP DP  RH WIND       PRES   REMARKS
YAP AIRPORT    PTSUNNY   86  77  74 VRB6      29.85S HX  97
CHUUK AP       PTSUNNY   88  79  74 VRB3      29.83F HX 102
POHNPEI AP     CLOUDY    88  77  70 N6        29.78F HX 100
POHNPEI WSO    CLOUDY    88  77  70 W3        29.83F HX 100
KOSRAE AP      CLOUDY    88  77  70 NW8       29.77F HX 100

$$

PMZ181-280200-
REPUBLIC OF THE MARSHALL ISLANDS-

CITY           SKY/WX    TMP DP  RH WIND       PRES   REMARKS
KWAJALEIN AP   MOSUNNY   88  75  66 NE6       29.75F HX  97
MAJURO AP      NOT AVBL
MAJURO WSO     MOSUNNY   88  77  70 SE7       29.73F HX 100

$$




USA.gov is the U.S. government's official web portal to all federal, state and local government web resources and services.